Location: Unspecified
(0.0000°N, 0.0000°E)
Time: 23:54:55
(UTC+00:00)

Kosmos-2266 - Pass Details

Date: 10 June 2023
Orbit: 945 x 1018 km, 82.9° (Epoch: 28 September)

Event Time Altitude Azimuth Distance (km) Brightness Sun altitude
Rises 18:41:19 0° 191° (S) 3,640 8.4 -9.6°
Reaches altitude 10° 18:43:52 10° 194° (SSW) 2,684 7.7 -10.2°
Maximum altitude 18:49:53 60° 273° (W) 1,076 6.1 -11.6°
Drops below altitude 10° 18:55:49 10° 352° (N) 2,654 8.2 -12.9°
Sets 18:58:20 0° 356° (N) 3,596 8.9 -13.5°
